This is the latest recevied weather packets stored in our database for station/object KF0JHJ. If no packets are shown the sender has not sent any weather packets the latest 10 day(s).
| Time | Temp. | Humidity | Pressure | Rain* | Wind** | Luminosity | Snow |
|---|---|---|---|---|---|---|---|
| 1778017973 | 10.56° C | 42% | 1008.5 hPa | - | - | 141 W/m² | - |
| 1778017670 | 11.11° C | 41% | 1008.4 hPa | - | - | 179 W/m² | - |
| 1778017368 | 10.56° C | 41% | 1008.5 hPa | - | - | 234 W/m² | - |
| 1778017065 | 10° C | 43% | 1008.6 hPa | - | - | 144 W/m² | - |
| 1778016762 | 10° C | 42% | 1008.7 hPa | - | - | 204 W/m² | - |
| 1778016457 | 10° C | 42% | 1008.7 hPa | - | - | 139 W/m² | - |
| 1778016155 | 10° C | 43% | 1008.8 hPa | - | - | 130 W/m² | - |
| 1778015852 | 10° C | 43% | 1008.8 hPa | - | - | 181 W/m² | - |
| 1778015549 | 10° C | 43% | 1008.7 hPa | - | - | 210 W/m² | - |
| 1778015246 | 10° C | 42% | 1008.7 hPa | - | - | 175 W/m² | - |
| 1778014942 | 10° C | 45% | 1008.7 hPa | - | - | 289 W/m² | - |
| 1778014640 | 10° C | 44% | 1008.8 hPa | - | - | 166 W/m² | - |
| 1778014338 | 10° C | 44% | 1008.9 hPa | - | - | 165 W/m² | - |
| 1778014034 | 10.56° C | 44% | 1008.9 hPa | - | - | 131 W/m² | - |
| 1778013732 | 10.56° C | 43% | 1009 hPa | - | - | 114 W/m² | - |
| 1778013430 | 11.11° C | 41% | 1008.7 hPa | - | - | 169 W/m² | - |
| 1778013126 | 10.56° C | 41% | 1008.7 hPa | - | - | 254 W/m² | - |
| 1778012821 | 10.56° C | 42% | 1008.8 hPa | - | - | 309 W/m² | - |
| 1778012518 | 10.56° C | 43% | 1008.7 hPa | - | - | 193 W/m² | - |
| 1778012214 | 10° C | 43% | 1008.9 hPa | - | - | 192 W/m² | - |
| 1778011913 | 10.56° C | 43% | 1008.8 hPa | - | - | 221 W/m² | - |
| 1778011611 | 10° C | 42% | 1008.9 hPa | - | - | 225 W/m² | - |
| 1778011307 | 10.56° C | 41% | 1009 hPa | - | - | 175 W/m² | - |
| 1778011003 | 10.56° C | 43% | 1008.9 hPa | - | - | 799 W/m² | - |
| 1778010700 | 10° C | 41% | 1008.8 hPa | - | - | 287 W/m² | - |
* Rain since midnight (hover to see other rain measurements)
** Current wind speed in m/s (hover to see current wind gust speed)